TimeEST,TemperatureF,Dew PointF,Humidity,Sea Level PressureIn,VisibilityMPH,Wind Direction,Wind SpeedMPH,Gust SpeedMPH,PrecipitationIn,Events,Conditions,WindDirDegrees,DateUTC
12:53 AM,10.9,-5.1,49,30.24,10.0,Calm,Calm,-,N/A,,Clear,0,2013-02-11 05:53:00
1:53 AM,8.1,-4.0,58,30.23,10.0,SW,5.8,-,N/A,,Clear,230,2013-02-11 06:53:00
2:53 AM,10.0,-5.1,51,30.22,10.0,West,4.6,-,N/A,,Clear,260,2013-02-11 07:53:00
3:53 AM,10.0,-5.1,51,30.20,10.0,Calm,Calm,-,N/A,,Clear,0,2013-02-11 08:53:00
4:53 AM,3.0,-5.1,69,30.20,10.0,SSE,4.6,-,N/A,,Clear,160,2013-02-11 09:53:00
5:53 AM,5.0,-5.1,63,30.18,10.0,South,5.8,-,N/A,,Clear,180,2013-02-11 10:53:00
6:53 AM,6.1,-5.1,60,30.17,10.0,SSE,4.6,-,N/A,,Clear,150,2013-02-11 11:53:00
7:53 AM,5.0,-5.1,63,30.15,10.0,ESE,5.8,-,N/A,,Clear,110,2013-02-11 12:53:00
8:53 AM,9.0,-2.9,59,30.12,10.0,SE,5.8,-,N/A,,Clear,130,2013-02-11 13:53:00
9:53 AM,12.9,-0.9,54,30.09,10.0,SSE,6.9,-,N/A,,Clear,150,2013-02-11 14:53:00
10:53 AM,17.1,-0.0,47,30.04,10.0,ESE,9.2,-,N/A,,Clear,120,2013-02-11 15:53:00
11:53 AM,19.9,1.0,44,29.99,10.0,SE,11.5,-,N/A,,Scattered Clouds,140,2013-02-11 16:53:00
12:53 PM,23.0,5.0,46,29.92,10.0,SE,10.4,-,N/A,,Scattered Clouds,140,2013-02-11 17:53:00
1:53 PM,25.0,8.1,49,29.88,10.0,SSE,16.1,-,N/A,,Overcast,150,2013-02-11 18:53:00
2:20 PM,24.8,12.2,59,29.84,2.5,South,12.7,20.7,0.00,Snow,Light Snow,170,2013-02-11 19:20:00
2:24 PM,24.8,14.0,64,29.83,1.5,South,12.7,20.7,0.00,Snow,Light Snow,170,2013-02-11 19:24:00
2:29 PM,24.8,15.8,69,29.83,2.0,SSE,11.5,-,0.00,Snow,Light Snow,150,2013-02-11 19:29:00
2:38 PM,24.8,14.0,64,29.82,8.0,SE,11.5,-,0.00,,Overcast,140,2013-02-11 19:38:00
2:48 PM,24.8,15.8,69,29.81,1.8,SSE,17.3,21.9,0.00,Snow,Light Snow,160,2013-02-11 19:48:00
2:51 PM,24.8,15.8,69,29.81,1.2,SSE,16.1,-,0.00,Snow,Light Snow,150,2013-02-11 19:51:00
2:53 PM,24.1,16.0,71,29.86,1.2,SSE,17.3,-,0.00,Snow,Light Snow,150,2013-02-11 19:53:00
3:07 PM,21.2,17.6,86,29.81,0.5,SSE,12.7,-,0.00,Fog-Snow,Light Snow,150,2013-02-11 20:07:00
3:20 PM,21.2,19.4,93,29.80,0.2,SE,11.5,-,0.00,Fog-Snow,Snow,140,2013-02-11 20:20:00
3:44 PM,21.2,19.4,93,29.79,0.5,SE,11.5,-,0.01,Fog-Snow,Snow,130,2013-02-11 20:44:00
3:53 PM,21.9,19.9,92,29.83,0.5,SE,12.7,-,0.01,Fog-Snow,Snow,130,2013-02-11 20:53:00
4:12 PM,21.2,19.4,93,29.77,0.2,SE,12.7,-,0.01,Fog-Snow,Heavy Snow,130,2013-02-11 21:12:00
4:30 PM,21.2,19.4,93,29.76,0.2,SE,13.8,-,0.02,Fog-Snow,Snow,140,2013-02-11 21:30:00
4:38 PM,21.2,21.2,100,29.75,0.2,SE,13.8,-,0.02,Fog-Snow,Snow,140,2013-02-11 21:38:00
4:53 PM,23.0,21.0,92,29.79,0.8,SE,12.7,-,0.02,Snow,Light Snow,140,2013-02-11 21:53:00
4:56 PM,23.0,21.2,93,29.73,1.5,SE,12.7,-,0.00,Snow,Light Snow,140,2013-02-11 21:56:00
4:58 PM,23.0,21.2,93,29.73,2.0,SE,12.7,-,0.00,Snow,Light Snow,130,2013-02-11 21:58:00
5:01 PM,23.0,21.2,93,29.73,3.0,SE,11.5,-,0.00,Snow,Light Snow,140,2013-02-11 22:01:00
5:53 PM,24.1,21.9,91,29.75,4.0,SE,11.5,-,0.01,Snow,Light Snow,140,2013-02-11 22:53:00
6:10 PM,24.8,23.0,93,29.69,2.5,SE,11.5,-,0.00,Snow,Light Snow,140,2013-02-11 23:10:00
6:32 PM,24.8,23.0,93,29.68,3.0,SSE,13.8,-,0.00,Snow,Light Snow,150,2013-02-11 23:32:00
6:46 PM,24.8,23.0,93,29.67,3.0,SSE,13.8,-,0.00,Snow,Light Snow,150,2013-02-11 23:46:00
6:53 PM,25.0,23.0,92,29.72,2.5,SSE,13.8,-,0.00,Snow,Light Snow,150,2013-02-11 23:53:00
7:19 PM,24.8,24.8,100,29.65,4.0,SSE,11.5,-,0.00,Snow,Light Snow,150,2013-02-12 00:19:00
7:28 PM,24.8,24.8,100,29.65,1.8,SSE,11.5,-,0.00,Snow,Light Snow,150,2013-02-12 00:28:00
7:30 PM,24.8,24.8,100,29.65,1.2,SSE,10.4,-,0.00,Snow,Light Snow,150,2013-02-12 00:30:00
7:43 PM,24.8,24.8,100,29.64,1.2,SE,9.2,-,0.00,Snow,Light Snow,140,2013-02-12 00:43:00
7:51 PM,24.8,24.8,100,29.64,1.5,SE,9.2,-,0.00,Snow,Light Snow,140,2013-02-12 00:51:00
7:53 PM,25.0,24.1,96,29.69,1.5,SE,9.2,-,0.00,Snow,Light Snow,140,2013-02-12 00:53:00
8:00 PM,24.8,24.8,100,29.63,1.8,SE,9.2,-,0.00,Snow,Light Snow,140,2013-02-12 01:00:00
8:14 PM,26.6,24.8,93,29.63,1.8,SE,9.2,-,0.00,Snow,Light Snow,140,2013-02-12 01:14:00
8:18 PM,26.6,24.8,93,29.62,2.0,SE,9.2,-,0.00,Snow,Light Snow,140,2013-02-12 01:18:00
8:46 PM,26.6,24.8,93,29.60,2.0,SE,11.5,-,0.00,Snow,Light Snow,140,2013-02-12 01:46:00
8:53 PM,27.0,25.0,92,29.65,2.0,SE,11.5,-,0.00,Snow,Light Snow,140,2013-02-12 01:53:00
9:25 PM,26.6,26.6,100,29.58,1.8,SSE,10.4,-,0.00,Snow,Light Snow,150,2013-02-12 02:25:00
9:38 PM,26.6,26.6,100,29.57,2.0,SSE,10.4,-,0.00,Snow,Light Snow,150,2013-02-12 02:38:00
9:50 PM,26.6,26.6,100,29.56,4.0,SE,10.4,-,0.00,,Overcast,140,2013-02-12 02:50:00
9:53 PM,27.0,26.1,96,29.61,5.0,SSE,10.4,-,0.00,,Overcast,150,2013-02-12 02:53:00
10:27 PM,28.4,26.6,93,29.55,6.0,SSE,9.2,-,N/A,,Overcast,150,2013-02-12 03:27:00
10:40 PM,28.4,26.6,93,29.54,4.0,SE,8.1,-,N/A,,Overcast,140,2013-02-12 03:40:00
10:48 PM,28.4,26.6,93,29.54,3.0,SE,9.2,-,N/A,,Overcast,140,2013-02-12 03:48:00
10:53 PM,28.0,27.0,96,29.58,4.0,SE,9.2,-,N/A,,Overcast,140,2013-02-12 03:53:00
11:03 PM,28.4,26.6,93,29.53,5.0,SSE,8.1,-,N/A,,Overcast,150,2013-02-12 04:03:00
11:53 PM,28.0,27.0,96,29.55,6.0,SE,9.2,-,N/A,,Overcast,140,2013-02-12 04:53:00